Datum;Richtung;Anzahl Messungen;Anzahl Fahrzeuge;Durchschnittsgeschwindigkeit;Höchstgeschwindigkeit
11/10/2021 10:00;1;105;105;23.35;37.00
11/10/2021 10:30;1;100;100;22.77;41.00
11/10/2021 11:00;1;115;115;23.36;56.00
11/10/2021 11:30;1;104;104;23.31;39.00
11/10/2021 12:00;1;116;116;23.62;44.00
11/10/2021 12:30;1;105;105;22.91;35.00
11/10/2021 13:00;1;122;122;22.79;32.00
11/10/2021 13:30;1;99;99;23.17;37.00
11/10/2021 14:00;1;128;128;24.49;36.00
11/10/2021 14:30;1;101;101;22.42;31.00
11/10/2021 15:00;1;107;107;22.77;39.00
11/10/2021 15:30;1;128;128;22.90;32.00
11/10/2021 16:00;1;101;101;21.77;35.00
11/10/2021 16:30;1;89;89;21.29;31.00
11/10/2021 17:00;1;75;75;23.03;33.00
11/10/2021 17:30;1;95;95;22.53;31.00
11/10/2021 18:00;1;93;93;23.13;38.00
11/10/2021 18:30;1;112;112;22.61;33.00
11/10/2021 19:00;1;92;92;23.28;36.00
11/10/2021 19:30;1;87;87;24.57;41.00
11/10/2021 20:00;1;87;87;24.98;45.00
11/10/2021 20:30;1;57;57;25.21;44.00
11/10/2021 21:00;1;64;64;25.45;39.00
11/10/2021 21:30;1;74;74;25.51;40.00
11/10/2021 22:00;1;54;54;25.07;40.00
11/10/2021 22:30;1;42;42;26.50;44.00
11/10/2021 23:00;1;30;30;26.10;52.00
11/10/2021 23:30;1;20;20;25.25;42.00
12/10/2021 00:00;1;18;18;26.89;50.00
12/10/2021 00:30;1;6;6;26.67;40.00
12/10/2021 01:00;1;7;7;28.43;40.00
12/10/2021 01:30;1;7;7;30.43;41.00
12/10/2021 02:00;1;5;5;33.00;40.00
12/10/2021 02:30;1;5;5;23.80;30.00
12/10/2021 03:00;1;3;3;25.00;29.00
12/10/2021 03:30;1;1;1;25.00;25.00
12/10/2021 04:00;1;8;8;25.00;34.00
12/10/2021 04:30;1;23;23;26.48;43.00
12/10/2021 05:00;1;36;36;26.69;43.00
12/10/2021 05:30;1;51;51;25.22;40.00
12/10/2021 06:00;1;67;67;25.25;36.00
12/10/2021 06:30;1;134;134;24.23;35.00
12/10/2021 07:00;1;101;101;23.07;35.00
12/10/2021 07:30;1;64;64;23.59;36.00
12/10/2021 08:00;1;87;87;23.52;33.00
12/10/2021 08:30;1;67;67;24.34;35.00
12/10/2021 09:00;1;96;96;23.08;32.00
12/10/2021 09:30;1;91;91;22.71;39.00
12/10/2021 10:00;1;106;106;23.36;33.00
12/10/2021 10:30;1;105;105;23.44;35.00
12/10/2021 11:00;1;99;99;23.42;37.00
12/10/2021 11:30;1;105;105;22.68;35.00
12/10/2021 12:00;1;120;120;23.05;39.00
12/10/2021 12:30;1;93;93;23.56;35.00
12/10/2021 13:00;1;139;139;23.45;35.00
12/10/2021 13:30;1;123;123;23.39;42.00
12/10/2021 14:00;1;106;106;23.58;34.00
12/10/2021 14:30;1;111;111;24.48;46.00
12/10/2021 15:00;1;130;130;22.61;33.00
12/10/2021 15:30;1;93;93;22.46;33.00
12/10/2021 16:00;1;112;112;22.50;30.00
12/10/2021 16:30;1;57;57;22.07;38.00
12/10/2021 17:00;1;21;21;20.19;25.00
12/10/2021 17:30;1;49;49;22.02;37.00
12/10/2021 18:00;1;61;61;21.66;31.00
12/10/2021 18:30;1;97;97;23.67;40.00
12/10/2021 19:00;1;111;111;24.16;41.00
12/10/2021 19:30;1;91;91;24.05;34.00
12/10/2021 20:00;1;94;94;24.12;36.00
12/10/2021 20:30;1;73;73;23.27;40.00
12/10/2021 21:00;1;71;71;24.63;42.00
12/10/2021 21:30;1;69;69;25.43;42.00
12/10/2021 22:00;1;59;59;26.31;43.00
12/10/2021 22:30;1;36;36;24.78;37.00
12/10/2021 23:00;1;30;30;27.73;40.00
12/10/2021 23:30;1;18;18;25.39;41.00
13/10/2021 00:00;1;18;18;29.50;44.00
13/10/2021 00:30;1;16;16;26.81;42.00
13/10/2021 01:00;1;6;6;23.00;27.00
13/10/2021 01:30;1;7;7;31.00;34.00
13/10/2021 02:00;1;4;4;24.50;28.00
13/10/2021 02:30;1;3;3;40.00;42.00
13/10/2021 03:00;1;5;5;28.80;33.00
13/10/2021 03:30;1;4;4;22.50;24.00
13/10/2021 04:00;1;13;13;26.38;37.00
13/10/2021 04:30;1;14;14;26.93;42.00
13/10/2021 05:00;1;25;25;27.16;43.00
13/10/2021 05:30;1;56;56;26.48;41.00
13/10/2021 06:00;1;76;76;25.59;40.00
13/10/2021 06:30;1;92;92;23.97;37.00
13/10/2021 07:00;1;108;108;23.35;33.00
13/10/2021 07:30;1;47;47;22.06;29.00
13/10/2021 08:00;1;94;94;22.14;35.00
13/10/2021 08:30;1;85;85;22.82;33.00
13/10/2021 09:00;1;86;86;23.40;38.00
13/10/2021 09:30;1;97;97;23.25;36.00
13/10/2021 10:00;1;88;88;22.38;35.00
13/10/2021 10:30;1;102;102;23.75;35.00
13/10/2021 11:00;1;112;112;23.17;32.00
13/10/2021 11:30;1;97;97;24.13;34.00
13/10/2021 12:00;1;111;111;23.59;36.00
13/10/2021 12:30;1;115;115;22.04;32.00
13/10/2021 13:00;1;117;117;22.96;35.00
13/10/2021 13:30;1;125;125;22.69;33.00
13/10/2021 14:00;1;109;109;22.60;33.00
13/10/2021 14:30;1;119;119;23.94;35.00
13/10/2021 15:00;1;101;101;23.07;34.00
13/10/2021 15:30;1;108;108;21.90;30.00
13/10/2021 16:00;1;109;109;21.67;35.00
13/10/2021 16:30;1;18;18;18.94;24.00
13/10/2021 17:00;1;27;27;18.93;26.00
13/10/2021 17:30;1;78;78;22.51;33.00
13/10/2021 18:00;1;96;96;22.11;34.00
13/10/2021 18:30;1;107;107;22.71;33.00
13/10/2021 19:00;1;106;106;23.12;35.00
13/10/2021 19:30;1;99;99;24.09;35.00
13/10/2021 20:00;1;84;84;23.94;35.00
13/10/2021 20:30;1;76;76;23.84;37.00
13/10/2021 21:00;1;79;79;24.18;54.00
13/10/2021 21:30;1;62;62;26.87;45.00
13/10/2021 22:00;1;94;94;25.94;42.00
13/10/2021 22:30;1;29;29;25.66;38.00
13/10/2021 23:00;1;52;52;24.02;36.00
13/10/2021 23:30;1;33;33;26.15;41.00
14/10/2021 00:00;1;24;24;27.75;47.00
14/10/2021 00:30;1;9;9;32.22;52.00
14/10/2021 01:00;1;6;6;25.50;34.00
14/10/2021 01:30;1;5;5;23.40;36.00
14/10/2021 02:00;1;6;6;26.33;37.00
14/10/2021 02:30;1;1;1;25.00;25.00
14/10/2021 03:00;1;7;7;24.71;29.00
14/10/2021 03:30;1;4;4;22.25;27.00
14/10/2021 04:00;1;9;9;25.22;40.00
14/10/2021 04:30;1;15;15;26.00;38.00
14/10/2021 05:00;1;20;20;30.60;46.00
14/10/2021 05:30;1;56;56;25.55;42.00
14/10/2021 06:00;1;66;66;25.23;39.00
14/10/2021 06:30;1;101;101;23.71;37.00
14/10/2021 07:00;1;98;98;24.44;42.00
14/10/2021 07:30;1;74;74;22.66;34.00
14/10/2021 08:00;1;70;70;23.06;37.00
14/10/2021 08:30;1;82;82;23.28;35.00
14/10/2021 09:00;1;88;88;22.75;36.00
14/10/2021 09:30;1;103;103;23.30;36.00
14/10/2021 10:00;1;98;98;23.44;42.00
14/10/2021 10:30;1;93;93;23.11;34.00
14/10/2021 11:00;1;113;113;23.46;37.00
14/10/2021 11:30;1;109;109;22.95;34.00
14/10/2021 12:00;1;118;118;23.47;40.00
14/10/2021 12:30;1;105;105;24.00;38.00
14/10/2021 13:00;1;111;111;23.23;35.00
14/10/2021 13:30;1;103;103;23.25;34.00
14/10/2021 14:00;1;95;95;23.51;32.00
14/10/2021 14:30;1;114;114;23.04;36.00
14/10/2021 15:00;1;119;119;22.37;33.00
14/10/2021 15:30;1;106;106;22.76;35.00
14/10/2021 16:00;1;99;99;22.30;32.00
14/10/2021 16:30;1;92;92;21.39;35.00
14/10/2021 17:00;1;71;71;21.70;30.00
14/10/2021 17:30;1;66;66;21.35;32.00
14/10/2021 18:00;1;100;100;22.89;48.00
14/10/2021 18:30;1;98;98;22.30;36.00
14/10/2021 19:00;1;118;118;22.61;35.00
14/10/2021 19:30;1;98;98;23.70;32.00
14/10/2021 20:00;1;90;90;23.69;37.00
14/10/2021 20:30;1;78;78;24.37;39.00
14/10/2021 21:00;1;84;84;24.73;39.00
14/10/2021 21:30;1;78;78;24.63;48.00
14/10/2021 22:00;1;58;58;27.02;40.00
14/10/2021 22:30;1;45;45;26.89;37.00
14/10/2021 23:00;1;43;43;26.65;40.00
14/10/2021 23:30;1;28;28;26.61;43.00
15/10/2021 00:00;1;29;29;26.66;39.00
15/10/2021 00:30;1;10;10;27.40;37.00
15/10/2021 01:00;1;16;16;27.81;39.00
15/10/2021 01:30;1;5;5;31.20;42.00
15/10/2021 02:00;1;7;7;26.71;38.00
15/10/2021 02:30;1;8;8;37.38;51.00
15/10/2021 03:00;1;2;2;25.00;25.00
15/10/2021 03:30;1;3;3;28.33;29.00
15/10/2021 04:00;1;8;8;29.00;40.00
15/10/2021 04:30;1;15;15;26.33;41.00
15/10/2021 05:00;1;21;21;30.10;47.00
15/10/2021 05:30;1;53;53;27.21;42.00
15/10/2021 06:00;1;72;72;25.10;40.00
15/10/2021 06:30;1;78;78;24.85;33.00
15/10/2021 07:00;1;104;104;24.25;38.00
15/10/2021 07:30;1;75;75;22.49;31.00
15/10/2021 08:00;1;88;88;23.75;33.00
15/10/2021 08:30;1;83;83;22.83;37.00
15/10/2021 09:00;1;100;100;24.08;37.00
15/10/2021 09:30;1;102;102;23.83;39.00
15/10/2021 10:00;1;95;95;23.08;42.00
15/10/2021 10:30;1;103;103;23.37;43.00
15/10/2021 11:00;1;109;109;23.67;37.00
15/10/2021 11:30;1;113;113;23.65;37.00
15/10/2021 12:00;1;132;132;23.33;38.00
15/10/2021 12:30;1;123;123;22.86;35.00
15/10/2021 13:00;1;121;121;23.62;35.00
15/10/2021 13:30;1;126;126;23.47;33.00
15/10/2021 14:00;1;97;97;22.85;32.00
15/10/2021 14:30;1;103;103;22.78;33.00
15/10/2021 15:00;1;115;115;23.00;34.00
15/10/2021 15:30;1;109;109;22.33;36.00
15/10/2021 16:00;1;127;127;23.44;34.00
15/10/2021 16:30;1;103;103;22.61;36.00
15/10/2021 17:00;1;113;113;22.69;47.00
15/10/2021 17:30;1;99;99;23.34;36.00
15/10/2021 18:00;1;73;73;22.97;41.00
15/10/2021 18:30;1;93;93;24.10;39.00
15/10/2021 19:00;1;98;98;23.24;42.00
15/10/2021 19:30;1;72;72;24.00;34.00
15/10/2021 20:00;1;109;109;24.31;38.00
15/10/2021 20:30;1;81;81;24.91;38.00
15/10/2021 21:00;1;71;71;24.80;38.00
15/10/2021 21:30;1;80;80;23.24;35.00
15/10/2021 22:00;1;71;71;25.11;38.00
15/10/2021 22:30;1;72;72;25.58;39.00
15/10/2021 23:00;1;53;53;25.91;39.00
15/10/2021 23:30;1;27;27;32.85;76.00
16/10/2021 00:00;1;28;28;27.29;49.00
16/10/2021 00:30;1;20;20;27.40;43.00
16/10/2021 01:00;1;25;25;25.32;32.00
16/10/2021 01:30;1;11;11;29.91;45.00
16/10/2021 02:00;1;14;14;28.64;40.00
16/10/2021 02:30;1;9;9;28.00;42.00
16/10/2021 03:00;1;12;12;29.25;42.00
16/10/2021 03:30;1;9;9;26.89;35.00
16/10/2021 04:00;1;11;11;27.27;40.00
16/10/2021 04:30;1;10;10;26.70;44.00
16/10/2021 05:00;1;24;24;27.58;41.00
16/10/2021 05:30;1;19;19;28.32;44.00
16/10/2021 06:00;1;31;31;24.42;37.00
16/10/2021 06:30;1;33;33;26.15;37.00
16/10/2021 07:00;1;63;63;25.92;42.00
16/10/2021 07:30;1;62;62;26.21;38.00
16/10/2021 08:00;1;79;79;23.87;36.00
16/10/2021 08:30;1;106;106;24.38;39.00
16/10/2021 09:00;1;133;133;24.15;38.00
16/10/2021 09:30;1;118;118;24.86;42.00
16/10/2021 10:00;1;131;131;23.48;35.00
16/10/2021 10:30;1;143;143;23.22;39.00
16/10/2021 11:00;1;130;130;23.72;36.00
16/10/2021 11:30;1;130;130;23.98;37.00
16/10/2021 12:00;1;115;115;23.25;36.00
16/10/2021 12:30;1;111;111;23.88;35.00
16/10/2021 13:00;1;113;113;23.08;33.00
16/10/2021 13:30;1;122;122;22.63;35.00
16/10/2021 14:00;1;126;126;22.93;41.00
16/10/2021 14:30;1;104;104;23.27;38.00
16/10/2021 15:00;1;113;113;23.33;35.00
16/10/2021 15:30;1;115;115;23.48;37.00
16/10/2021 16:00;1;88;88;24.07;35.00
16/10/2021 16:30;1;87;87;23.67;34.00
16/10/2021 17:00;1;85;85;23.18;32.00
16/10/2021 17:30;1;97;97;23.89;45.00
16/10/2021 18:00;1;87;87;24.03;42.00
16/10/2021 18:30;1;97;97;23.11;42.00
16/10/2021 19:00;1;110;110;23.30;38.00
16/10/2021 19:30;1;97;97;24.21;38.00
16/10/2021 20:00;1;92;92;24.80;45.00
16/10/2021 20:30;1;81;81;24.44;50.00
16/10/2021 21:00;1;64;64;24.55;40.00
16/10/2021 21:30;1;53;53;26.85;43.00
16/10/2021 22:00;1;76;76;25.00;42.00
16/10/2021 22:30;1;55;55;26.75;57.00
16/10/2021 23:00;1;38;38;24.71;34.00
16/10/2021 23:30;1;35;35;26.23;43.00
17/10/2021 00:00;1;29;29;26.48;40.00
17/10/2021 00:30;1;30;30;27.00;39.00
17/10/2021 01:00;1;27;27;26.70;49.00
17/10/2021 01:30;1;13;13;25.00;42.00
17/10/2021 02:00;1;18;18;27.78;42.00
17/10/2021 02:30;1;18;18;29.89;46.00
17/10/2021 03:00;1;13;13;32.31;45.00
17/10/2021 03:30;1;16;16;29.81;42.00
17/10/2021 04:00;1;15;15;27.07;44.00
17/10/2021 04:30;1;16;16;27.88;47.00
17/10/2021 05:00;1;13;13;24.92;37.00
17/10/2021 05:30;1;14;14;27.71;50.00
17/10/2021 06:00;1;17;17;25.35;45.00
17/10/2021 06:30;1;28;28;24.00;33.00
17/10/2021 07:00;1;33;33;25.61;41.00
17/10/2021 07:30;1;49;49;24.55;38.00
17/10/2021 08:00;1;45;45;24.42;37.00
17/10/2021 08:30;1;54;54;25.06;34.00
17/10/2021 09:00;1;92;92;25.65;41.00
17/10/2021 09:30;1;103;103;25.28;35.00
17/10/2021 10:00;1;85;85;25.29;42.00
17/10/2021 10:30;1;122;122;24.58;39.00
17/10/2021 11:00;1;129;129;25.37;39.00
17/10/2021 11:30;1;117;117;24.09;40.00
17/10/2021 12:00;1;140;140;24.45;36.00
17/10/2021 12:30;1;136;136;24.54;41.00
17/10/2021 13:00;1;106;106;23.83;33.00
17/10/2021 13:30;1;134;134;24.92;38.00
17/10/2021 14:00;1;131;131;24.16;36.00
17/10/2021 14:30;1;127;127;23.69;37.00
17/10/2021 15:00;1;121;121;24.00;39.00
17/10/2021 15:30;1;122;122;24.21;36.00
17/10/2021 16:00;1;116;116;24.27;40.00
17/10/2021 16:30;1;111;111;24.60;39.00
17/10/2021 17:00;1;92;92;25.05;35.00
17/10/2021 17:30;1;103;103;24.40;36.00
17/10/2021 18:00;1;92;92;23.93;34.00
17/10/2021 18:30;1;94;94;24.16;38.00
17/10/2021 19:00;1;82;82;24.11;37.00
17/10/2021 19:30;1;88;88;24.10;37.00
17/10/2021 20:00;1;77;77;25.19;37.00
17/10/2021 20:30;1;66;66;24.86;39.00
17/10/2021 21:00;1;73;73;24.93;44.00
17/10/2021 21:30;1;59;59;26.69;47.00
17/10/2021 22:00;1;61;61;25.59;40.00
17/10/2021 22:30;1;37;37;26.22;45.00
17/10/2021 23:00;1;19;19;24.84;37.00
17/10/2021 23:30;1;22;22;27.18;39.00
18/10/2021 00:00;1;13;13;26.69;42.00
18/10/2021 00:30;1;7;7;25.43;34.00
18/10/2021 01:00;1;5;5;22.80;25.00
18/10/2021 01:30;1;4;4;27.25;29.00
18/10/2021 02:00;1;6;6;29.00;41.00
18/10/2021 02:30;1;2;2;20.50;24.00
18/10/2021 03:00;1;8;8;35.88;51.00
18/10/2021 03:30;1;6;6;24.50;39.00
18/10/2021 04:00;1;11;11;26.55;39.00
18/10/2021 04:30;1;23;23;25.96;33.00
18/10/2021 05:00;1;36;36;26.44;41.00
18/10/2021 05:30;1;43;43;25.42;40.00
18/10/2021 06:00;1;69;69;25.51;37.00
18/10/2021 06:30;1;106;106;24.58;36.00
18/10/2021 07:00;1;95;95;24.59;38.00
18/10/2021 07:30;1;59;59;21.90;34.00
18/10/2021 08:00;1;76;76;21.71;35.00
18/10/2021 08:30;1;82;82;23.61;34.00
18/10/2021 09:00;1;80;80;22.26;30.00
18/10/2021 09:30;1;97;97;23.46;40.00
18/10/2021 10:00;1;96;96;23.57;34.00
18/10/2021 10:30;1;93;93;22.85;43.00
18/10/2021 11:00;1;99;99;23.72;39.00
18/10/2021 11:30;1;104;104;23.62;34.00
18/10/2021 12:00;1;126;126;23.38;36.00
18/10/2021 12:30;1;120;120;23.68;35.00
18/10/2021 13:00;1;114;114;23.61;32.00
18/10/2021 13:30;1;113;113;24.23;37.00
18/10/2021 14:00;1;103;103;23.81;39.00
18/10/2021 14:30;1;83;83;22.66;36.00
18/10/2021 15:00;1;75;75;22.96;34.00
18/10/2021 15:30;1;91;91;22.52;32.00
18/10/2021 16:00;1;78;78;21.72;35.00
18/10/2021 16:30;1;70;70;21.60;34.00
18/10/2021 17:00;1;73;73;21.79;30.00
18/10/2021 17:30;1;87;87;22.83;34.00
18/10/2021 18:00;1;75;75;21.91;41.00
18/10/2021 18:30;1;99;99;23.40;40.00
18/10/2021 19:00;1;122;122;22.91;36.00
18/10/2021 19:30;1;76;76;24.43;39.00
18/10/2021 20:00;1;92;92;24.07;40.00
18/10/2021 20:30;1;81;81;24.65;38.00
18/10/2021 21:00;1;85;85;25.26;39.00
18/10/2021 21:30;1;62;62;25.89;39.00
18/10/2021 22:00;1;55;55;25.80;35.00
18/10/2021 22:30;1;41;41;24.51;54.00
18/10/2021 23:00;1;26;26;24.73;43.00
18/10/2021 23:30;1;26;26;25.27;46.00
19/10/2021 00:00;1;15;15;30.53;46.00
19/10/2021 00:30;1;10;10;29.00;44.00
19/10/2021 01:00;1;8;8;26.25;32.00
19/10/2021 01:30;1;10;10;27.00;40.00
19/10/2021 02:00;1;3;3;26.67;37.00
19/10/2021 02:30;1;4;4;24.75;29.00
19/10/2021 03:00;1;2;2;21.00;22.00
19/10/2021 03:30;1;5;5;31.80;39.00
19/10/2021 04:00;1;12;12;28.33;41.00
19/10/2021 04:30;1;18;18;25.50;38.00
19/10/2021 05:00;1;28;28;26.32;38.00
19/10/2021 05:30;1;46;46;26.80;43.00
19/10/2021 06:00;1;64;64;25.06;40.00
19/10/2021 06:30;1;96;96;24.36;40.00
19/10/2021 07:00;1;86;86;23.41;34.00
19/10/2021 07:30;1;60;60;21.47;28.00
19/10/2021 08:00;1;88;88;24.12;38.00
19/10/2021 08:30;1;69;69;23.64;35.00
19/10/2021 09:00;1;87;87;24.09;33.00
19/10/2021 09:30;1;94;94;23.88;37.00
19/10/2021 10:00;1;107;107;23.32;31.00
19/10/2021 10:30;1;89;89;22.10;37.00
19/10/2021 11:00;1;112;112;23.11;35.00
19/10/2021 11:30;1;105;105;24.40;46.00
19/10/2021 12:00;1;132;132;23.72;36.00
19/10/2021 12:30;1;123;123;23.11;37.00
19/10/2021 13:00;1;115;115;22.53;41.00
19/10/2021 13:30;1;127;127;22.93;37.00
19/10/2021 14:00;1;134;134;22.92;40.00
19/10/2021 14:30;1;111;111;23.45;35.00
19/10/2021 15:00;1;119;119;22.99;34.00
19/10/2021 15:30;1;114;114;22.87;34.00
19/10/2021 16:00;1;101;101;21.50;33.00
19/10/2021 16:30;1;21;21;21.14;31.00
19/10/2021 17:00;1;34;34;19.29;26.00
19/10/2021 17:30;1;64;64;21.77;31.00
19/10/2021 18:00;1;88;88;21.92;33.00
19/10/2021 18:30;1;106;106;22.99;32.00
19/10/2021 19:00;1;104;104;23.78;43.00
19/10/2021 19:30;1;97;97;25.22;42.00
19/10/2021 20:00;1;108;108;24.31;41.00
19/10/2021 20:30;1;80;80;24.75;37.00
19/10/2021 21:00;1;96;96;25.41;40.00
19/10/2021 21:30;1;72;72;25.85;39.00
19/10/2021 22:00;1;62;62;27.11;48.00
19/10/2021 22:30;1;35;35;27.14;46.00
19/10/2021 23:00;1;35;35;26.26;45.00
19/10/2021 23:30;1;23;23;26.57;43.00
20/10/2021 00:00;1;12;12;27.50;48.00
20/10/2021 00:30;1;7;7;22.57;31.00
20/10/2021 01:00;1;7;7;27.00;33.00
20/10/2021 01:30;1;11;11;27.36;36.00
20/10/2021 02:00;1;4;4;25.50;29.00
20/10/2021 02:30;1;1;1;26.00;26.00
20/10/2021 03:00;1;3;3;28.33;35.00
20/10/2021 03:30;1;1;1;25.00;25.00
20/10/2021 04:00;1;12;12;24.17;36.00
20/10/2021 04:30;1;23;23;25.43;39.00
20/10/2021 05:00;1;34;34;27.12;44.00
20/10/2021 05:30;1;48;48;26.52;40.00
20/10/2021 06:00;1;74;74;24.28;37.00
20/10/2021 06:30;1;102;102;25.10;37.00
20/10/2021 07:00;1;98;98;24.04;33.00
20/10/2021 07:30;1;58;58;22.59;33.00
20/10/2021 08:00;1;87;87;23.70;33.00
20/10/2021 08:30;1;80;80;23.61;37.00
20/10/2021 09:00;1;86;86;24.09;36.00
20/10/2021 09:30;1;92;92;23.43;34.00
20/10/2021 10:00;1;111;111;23.30;36.00
20/10/2021 10:30;1;94;94;23.61;36.00
20/10/2021 11:00;1;110;110;23.05;36.00
20/10/2021 11:30;1;95;95;22.98;32.00
20/10/2021 12:00;1;94;94;24.03;38.00
20/10/2021 12:30;1;108;108;22.29;32.00
20/10/2021 13:00;1;97;97;22.15;34.00
20/10/2021 13:30;1;96;96;22.61;34.00
20/10/2021 14:00;1;106;106;22.60;32.00
20/10/2021 14:30;1;113;113;22.90;34.00
20/10/2021 15:00;1;112;112;22.56;33.00
20/10/2021 15:30;1;110;110;22.61;33.00
20/10/2021 16:00;1;92;92;22.62;33.00
20/10/2021 16:30;1;86;86;21.19;35.00
20/10/2021 17:00;1;34;34;19.97;26.00
20/10/2021 17:30;1;16;16;20.25;28.00
20/10/2021 18:00;1;92;92;22.07;42.00
20/10/2021 18:30;1;85;85;22.78;33.00
20/10/2021 19:00;1;100;100;22.44;33.00
20/10/2021 19:30;1;106;106;23.39;34.00
20/10/2021 20:00;1;88;88;23.44;31.00
20/10/2021 20:30;1;73;73;24.23;37.00
20/10/2021 21:00;1;83;83;24.59;36.00
20/10/2021 21:30;1;63;63;24.05;37.00
20/10/2021 22:00;1;55;55;25.73;40.00
20/10/2021 22:30;1;48;48;26.92;47.00
20/10/2021 23:00;1;41;41;27.05;45.00
20/10/2021 23:30;1;31;31;24.58;38.00
21/10/2021 00:00;1;11;11;26.82;36.00
21/10/2021 00:30;1;8;8;22.62;28.00
21/10/2021 01:00;1;7;7;23.14;30.00
21/10/2021 01:30;1;4;4;24.00;26.00
21/10/2021 02:00;1;3;3;29.00;33.00
21/10/2021 02:30;1;2;2;34.50;38.00
21/10/2021 03:00;1;3;3;27.67;35.00
21/10/2021 03:30;1;13;13;29.00;44.00
21/10/2021 04:00;1;7;7;26.43;38.00
21/10/2021 04:30;1;10;10;27.90;44.00
21/10/2021 05:00;1;32;32;28.59;41.00
21/10/2021 05:30;1;41;41;25.00;35.00
21/10/2021 06:00;1;66;66;26.24;38.00
21/10/2021 06:30;1;64;64;23.42;31.00
21/10/2021 07:00;1;83;83;23.47;40.00
21/10/2021 07:30;1;38;38;23.24;31.00
21/10/2021 08:00;1;42;42;21.90;32.00
21/10/2021 08:30;1;66;66;23.82;40.00
21/10/2021 09:00;1;93;93;23.15;37.00
21/10/2021 09:30;1;86;86;23.17;36.00
21/10/2021 10:00;1;97;97;23.77;33.00
21/10/2021 10:30;1;105;105;24.12;35.00
21/10/2021 11:00;1;86;86;23.60;33.00
21/10/2021 11:30;1;100;100;24.39;36.00
21/10/2021 12:00;1;106;106;23.58;32.00
21/10/2021 12:30;1;109;109;23.81;37.00
21/10/2021 13:00;1;95;95;22.44;36.00
21/10/2021 13:30;1;93;93;24.47;35.00
21/10/2021 14:00;1;100;100;23.56;37.00
21/10/2021 14:30;1;119;119;23.55;36.00
21/10/2021 15:00;1;120;120;23.33;37.00
21/10/2021 15:30;1;104;104;22.72;35.00
21/10/2021 16:00;1;98;98;22.82;33.00
21/10/2021 16:30;1;67;67;21.33;30.00
21/10/2021 17:00;1;72;72;22.58;31.00
21/10/2021 17:30;1;80;80;22.84;39.00
21/10/2021 18:00;1;133;133;22.98;35.00
21/10/2021 18:30;1;131;131;22.27;31.00
21/10/2021 19:00;1;121;121;24.32;37.00
21/10/2021 19:30;1;101;101;23.70;35.00
21/10/2021 20:00;1;80;80;24.69;42.00
21/10/2021 20:30;1;76;76;24.22;37.00
21/10/2021 21:00;1;90;90;24.40;38.00
21/10/2021 21:30;1;69;69;24.80;43.00
21/10/2021 22:00;1;66;66;24.18;40.00
21/10/2021 22:30;1;61;61;26.82;47.00
21/10/2021 23:00;1;39;39;25.87;43.00
21/10/2021 23:30;1;19;19;25.37;37.00
22/10/2021 00:00;1;13;13;29.85;41.00
22/10/2021 00:30;1;12;12;27.17;48.00
22/10/2021 01:00;1;5;5;24.40;36.00
22/10/2021 01:30;1;6;6;31.00;56.00
22/10/2021 02:00;1;12;12;28.33;33.00
22/10/2021 02:30;1;4;4;33.00;42.00
22/10/2021 03:00;1;9;9;27.89;55.00
22/10/2021 03:30;1;5;5;29.40;39.00
22/10/2021 04:00;1;9;9;30.22;34.00
22/10/2021 04:30;1;20;20;27.60;38.00
22/10/2021 05:00;1;35;35;28.86;55.00
22/10/2021 05:30;1;48;48;27.35;43.00
22/10/2021 06:00;1;60;60;25.43;47.00
22/10/2021 06:30;1;104;104;24.84;37.00
22/10/2021 07:00;1;78;78;23.18;32.00
22/10/2021 07:30;1;62;62;22.44;31.00
22/10/2021 08:00;1;87;87;23.55;32.00
22/10/2021 08:30;1;97;97;23.49;36.00
22/10/2021 09:00;1;89;89;23.84;40.00
22/10/2021 09:30;1;93;93;23.15;37.00
22/10/2021 10:00;1;100;100;24.03;38.00
22/10/2021 10:30;1;102;102;23.44;35.00
22/10/2021 11:00;1;108;108;23.07;35.00
22/10/2021 11:30;1;103;103;22.83;33.00
22/10/2021 12:00;1;149;149;23.09;37.00
22/10/2021 12:30;1;104;104;22.99;35.00
22/10/2021 13:00;1;120;120;22.47;33.00
22/10/2021 13:30;1;104;104;22.40;34.00
22/10/2021 14:00;1;102;102;23.02;36.00
22/10/2021 14:30;1;119;119;22.80;36.00
22/10/2021 15:00;1;101;101;22.52;34.00
22/10/2021 15:30;1;122;122;22.84;43.00
22/10/2021 16:00;1;106;106;22.58;36.00
22/10/2021 16:30;1;102;102;23.10;33.00
22/10/2021 17:00;1;109;109;23.36;36.00
22/10/2021 17:30;1;88;88;22.66;33.00
22/10/2021 18:00;1;104;104;22.71;36.00
22/10/2021 18:30;1;107;107;23.06;35.00
22/10/2021 19:00;1;101;101;23.85;35.00
22/10/2021 19:30;1;105;105;23.40;37.00
22/10/2021 20:00;1;72;72;24.76;37.00
22/10/2021 20:30;1;72;72;24.36;43.00
22/10/2021 21:00;1;71;71;23.80;38.00
22/10/2021 21:30;1;67;67;25.78;42.00
22/10/2021 22:00;1;74;74;25.65;53.00
22/10/2021 22:30;1;55;55;26.75;42.00
22/10/2021 23:00;1;52;52;25.19;43.00
22/10/2021 23:30;1;32;32;27.09;43.00
23/10/2021 00:00;1;32;32;24.06;36.00
23/10/2021 00:30;1;26;26;27.58;44.00
23/10/2021 01:00;1;20;20;29.15;43.00
23/10/2021 01:30;1;14;14;26.71;38.00
23/10/2021 02:00;1;6;6;28.00;41.00
23/10/2021 02:30;1;9;9;30.22;38.00
23/10/2021 03:00;1;8;8;30.88;36.00
23/10/2021 03:30;1;8;8;29.25;41.00
23/10/2021 04:00;1;8;8;27.50;33.00
23/10/2021 04:30;1;17;17;28.29;38.00
23/10/2021 05:00;1;19;19;29.84;43.00
23/10/2021 05:30;1;27;27;27.44;46.00
23/10/2021 06:00;1;38;38;26.16;34.00
23/10/2021 06:30;1;32;32;26.56;41.00
23/10/2021 07:00;1;50;50;25.94;41.00
23/10/2021 07:30;1;47;47;24.91;40.00
23/10/2021 08:00;1;84;84;24.81;45.00
23/10/2021 08:30;1;98;98;24.48;34.00
23/10/2021 09:00;1;118;118;24.44;36.00
23/10/2021 09:30;1;123;123;24.63;38.00
23/10/2021 10:00;1;129;129;23.19;32.00
23/10/2021 10:30;1;110;110;23.52;33.00
23/10/2021 11:00;1;120;120;23.27;34.00
23/10/2021 11:30;1;126;126;24.25;34.00
23/10/2021 12:00;1;118;118;23.39;38.00
23/10/2021 12:30;1;117;117;24.16;38.00
23/10/2021 13:00;1;106;106;22.92;36.00
23/10/2021 13:30;1;153;153;24.29;37.00
23/10/2021 14:00;1;119;119;23.19;35.00
23/10/2021 14:30;1;135;135;22.76;37.00
23/10/2021 15:00;1;126;126;23.52;37.00
23/10/2021 15:30;1;109;109;23.84;40.00
23/10/2021 16:00;1;106;106;24.58;35.00
23/10/2021 16:30;1;116;116;23.88;33.00
23/10/2021 17:00;1;106;106;23.74;37.00
23/10/2021 17:30;1;111;111;24.58;34.00
23/10/2021 18:00;1;94;94;24.95;43.00
23/10/2021 18:30;1;95;95;23.44;36.00
23/10/2021 19:00;1;100;100;24.09;36.00
23/10/2021 19:30;1;102;102;23.30;37.00
23/10/2021 20:00;1;69;69;24.22;37.00
23/10/2021 20:30;1;31;31;23.94;37.00
23/10/2021 21:00;1;66;66;26.89;45.00
23/10/2021 21:30;1;65;65;25.66;44.00
23/10/2021 22:00;1;58;58;25.95;43.00
23/10/2021 22:30;1;45;45;25.09;47.00
23/10/2021 23:00;1;62;62;26.76;43.00
23/10/2021 23:30;1;43;43;25.63;40.00
24/10/2021 00:00;1;36;36;27.25;42.00
24/10/2021 00:30;1;32;32;25.91;41.00
24/10/2021 01:00;1;38;38;26.11;41.00
24/10/2021 01:30;1;18;18;28.33;41.00
24/10/2021 02:00;1;19;19;30.26;44.00
24/10/2021 02:30;1;30;30;27.73;43.00
24/10/2021 03:00;1;17;17;30.12;43.00
24/10/2021 03:30;1;11;11;30.91;45.00
24/10/2021 04:00;1;11;11;28.09;37.00
24/10/2021 04:30;1;5;5;30.60;35.00
24/10/2021 05:00;1;9;9;31.11;43.00
24/10/2021 05:30;1;12;12;26.42;39.00
24/10/2021 06:00;1;23;23;27.48;51.00
24/10/2021 06:30;1;14;14;27.00;35.00
24/10/2021 07:00;1;28;28;26.54;37.00
24/10/2021 07:30;1;47;47;25.74;40.00
24/10/2021 08:00;1;54;54;25.26;40.00
24/10/2021 08:30;1;47;47;26.64;49.00
24/10/2021 09:00;1;85;85;25.22;41.00
24/10/2021 09:30;1;90;90;25.00;39.00
24/10/2021 10:00;1;96;96;25.21;46.00
24/10/2021 10:30;1;107;107;24.84;37.00
24/10/2021 11:00;1;137;137;25.72;42.00
24/10/2021 11:30;1;128;128;24.84;56.00
24/10/2021 12:00;1;124;124;25.19;42.00
24/10/2021 12:30;1;130;130;25.13;41.00
24/10/2021 13:00;1;132;132;25.49;40.00
24/10/2021 13:30;1;139;139;24.50;35.00
24/10/2021 14:00;1;132;132;23.71;36.00
24/10/2021 14:30;1;144;144;24.60;35.00
24/10/2021 15:00;1;129;129;23.93;32.00
24/10/2021 15:30;1;102;102;24.07;38.00
24/10/2021 16:00;1;98;98;24.33;34.00
24/10/2021 16:30;1;103;103;24.78;38.00